User: anonymous   Login
Location: Emblem
(62.4273°N, 6.4710°E)
Time: 09:07:44
(UTC+02:00)
Language:

Vanguard 1 - Orbit

View from above orbital plane
View from above orbital plane
View from above satellite
View from above satellite

Ground track
Ground track

The orbit data is extracted from the following two-line orbital elements,

1 00005U 58002B   24150.22210297  .00000666  00000-0  86406-3 0  9992
2 00005  34.2447 105.6867 1841209   2.1252 358.6010 10.85389343361862
Epoch (UTC): 29 May 2024 05:19:49
Eccentricity: 0.1841209
inclination: 34.2447°
perigee height: 652 km
apogee height: 3825 km
right ascension of ascending node: 105.6867°
argument of perigee: 2.1252°
revolutions per day: 10.85389343
mean anomaly at epoch: 358.6010°
orbit number at epoch: 36186

The dashed part of the orbit path shows where the satellite is in the earth's shadow,  

DLR